Location: Alvediston
(51.0078°N, 2.0364°W)
Time: 14:56:41
(UTC+00:00)

Daily predictions for brighter satellites

Satellite Brightness Start Highest point End
(mag) Time Altitude Azimuth Time Altitude Azimuth Time Altitude Azimuth
USA 238 DEB 4.4 18:07:34 10° NW 18:14:11 40° NNE 18:21:02 10° E
USA 238 4.4 18:07:40 10° NW 18:14:16 40° NNE 18:21:06 10° E
ADEOS Rocket 4.0 18:07:48 10° NNE 18:15:05 40° E 18:22:07 10° SSE
STARLINK-1033 3.8 18:14:14 10° SW 18:18:20 64° SSE 18:22:26 10° ENE
Cosmos 2227 Rocket 3.6 18:14:30 10° NNW 18:18:42 21° NE 18:22:54 10° E
Orbus 7S? 4.2 18:13:22 10° WSW 18:21:49 84° NNW 18:25:28 10° ENE
Sich 1 4.1 18:17:58 10° SSW 18:22:07 50° WNW 18:26:18 10° N
NOSS 3-1 (C) 3.7 18:16:42 10° SW 18:22:22 74° NW 18:29:04 10° NE
Cosmos 1656 Rocket 3.9 18:19:21 10° S 18:24:40 49° ESE 18:30:05 10° NE
Cosmos 2285 Rocket 4.3 18:21:16 10° NNW 18:27:39 77° WSW 18:34:02 10° SSE
STARLINK-1024 3.7 18:24:10 10° WSW 18:28:17 71° SSE 18:32:25 10° ENE
STARLINK 1040 2.9 18:27:21 10° W 18:30:07 56° N 18:32:39 12° ENE
H-2A R/B 3.0 18:27:45 10° ESE 18:32:26 31° ENE 18:37:09 10° N
STARLINK-22 3.3 18:30:03 10° W 18:33:20 59° N 18:36:16 12° ENE
STARLINK-41 3.3 18:31:33 10° W 18:34:49 58° N 18:37:41 13° ENE
STARLINK-1016 3.3 18:32:20 10° W 18:35:43 65° N 18:38:43 13° ENE
Meteor 1-18 Rocket 4.4 18:31:25 10° N 18:37:14 54° ENE 18:42:54 10° SSE
STARLINK-1008 3.3 18:33:59 10° W 18:37:23 64° N 18:40:20 13° ENE
COSMOS 2487 2.5 18:34:44 10° NNW 18:38:12 83° WSW 18:41:39 10° SSE
STARLINK-1032 3.6 18:34:06 10° WSW 18:38:14 78° SSE 18:41:59 13° ENE
STARLINK-75 3.3 18:35:54 10° W 18:39:14 59° N 18:41:58 14° E
STARLINK-58 3.5 18:36:50 10° W 18:40:22 61° N 18:43:17 14° ENE
STARLINK-24 3.7 18:36:24 10° W 18:40:25 66° N 18:43:51 14° ENE
Cosmos 921 Rocket 4.3 18:37:06 10° SW 18:41:28 46° WNW 18:45:49 10° NNE
STARLINK-1025 3.3 18:38:09 10° W 18:41:34 63° N 18:44:21 14° ENE
STARLINK-62 3.5 18:38:33 10° W 18:42:05 61° N 18:44:55 15° ENE
Cosmos 1470 Rocket 3.6 18:37:46 10° S 18:42:09 89° ESE 18:46:37 10° N
STARLINK-43 3.7 18:39:04 10° WNW 18:42:44 62° SSW 18:46:22 10° SE
STARLINK-1011 3.6 18:39:03 10° WSW 18:43:12 82° SSE 18:46:45 14° ENE
STARLINK-1017 3.3 18:40:15 10° W 18:43:39 63° N 18:46:21 15° ENE
STARLINK-34 3.5 18:40:10 10° W 18:43:42 61° N 18:46:29 15° ENE
Timation 2 Rocket 4.2 18:37:17 10° NNW 18:44:12 73° NE 18:51:04 10° SE
Lacrosse 5 rocket 2.2 18:40:13 10° WNW 18:44:34 45° NNE 18:48:11 15° E
Cosmos 2233 Rocket 4.2 18:38:28 10° SSW 18:44:38 79° W 18:50:54 10° N
STARLINK-1035 3.7 18:40:40 10° WSW 18:44:56 86° SSE 18:48:33 14° ENE
STARLINK-1050 4.4 18:41:21 10° SSW 18:45:06 34° SE 18:47:59 15° E
STARLINK-1031 3.6 18:41:02 10° WSW 18:45:10 88° SSE 18:48:37 14° ENE
Okean 1 3.5 18:41:37 10° N 18:45:31 48° ENE 18:49:23 10° SSE
Okean 1-7 3.1 18:42:18 10° N 18:46:35 57° ENE 18:50:53 10° SSE
HJ-1C 3.5 18:43:56 10° SSE 18:47:08 48° ENE 18:50:21 10° N
Cosmos 2219 3.9 18:42:17 10° NNW 18:47:35 36° NE 18:52:15 13° ESE
Cosmos 468 Rocket 4.4 18:42:53 10° S 18:47:49 42° ESE 18:52:50 10° NE
STARLINK-1036 3.6 18:44:02 10° WSW 18:48:11 85° SSE 18:51:32 15° ENE
COSMO-SKYMED 1 3.1 18:45:20 10° N 18:49:39 64° WNW 18:53:56 10° SSW
STARLINK-1048 3.4 18:46:37 10° W 18:50:01 62° N 18:52:29 17° ENE
STARLINK-1055 4.3 18:46:14 10° SSW 18:50:03 37° SE 18:52:45 17° E
STARLINK-81 3.7 18:47:08 10° W 18:51:09 65° N 18:54:10 17° ENE
Cosmos 405 2.9 18:47:52 10° N 18:51:26 70° ENE 18:54:58 10° SSE
STARLINK-1049 3.4 18:48:45 10° W 18:52:10 61° N 18:54:32 18° ENE
Lacrosse 5 2.8 18:48:15 10° S 18:52:35 29° SE 18:55:38 16° E
STARLINK-54 3.7 18:48:59 10° W 18:53:00 65° N 18:55:56 18° ENE
STARLINK-1044 3.6 18:49:01 10° WSW 18:53:10 88° SSE 18:56:20 17° ENE
STARLINK-1051 3.4 18:50:56 10° W 18:54:21 61° N 18:56:37 19° ENE
STARLINK-77 3.7 18:50:27 10° W 18:54:28 65° N 18:57:20 18° ENE
STARLINK-1022 4.2 18:51:08 10° SW 18:54:59 39° SE 18:57:32 19° E
STARLINK-1027 3.7 18:51:19 10° WSW 18:55:35 85° NNW 18:58:47 17° ENE
Meteor 2-4 Rocket 4.2 18:50:00 10° N 18:55:36 42° ENE 19:01:12 10° SE
STARLINK-1028 3.4 18:52:36 10° W 18:56:01 61° N 18:58:14 20° ENE
STARLINK-25 3.7 18:52:07 10° W 18:56:07 65° N 18:58:55 19° ENE
Cosmos 2263 Rocket 4.3 18:54:24 10° N 18:56:27 12° NNE 18:58:29 10° NE
NOSS 2-3 (E) 4.0 18:52:56 10° SW 18:57:23 74° NW 19:02:51 10° NE
STARLINK-71 3.7 18:53:59 10° W 18:58:00 64° N 19:00:42 20° ENE
STARLINK-1021 3.4 18:54:48 10° W 18:58:13 60° N 19:00:21 21° ENE
Meteor 1-14 Rocket 4.4 18:53:24 10° SSE 18:58:39 47° E 19:04:00 10° NNE
Gbstr 26 Del rocket 3.5 18:55:16 10° SW 18:59:08 44° SSE 19:02:07 19° E
STARLINK-79 3.7 18:55:26 10° W 18:59:27 64° N 19:02:07 20° ENE
STARLINK-1042 4.1 18:56:04 10° SW 18:59:58 42° SSE 19:02:20 21° E
STARLINK-1019 3.4 18:57:00 10° W 19:00:25 60° N 19:02:28 22° ENE
USA 234 3.7 18:55:21 13° ENE 19:01:07 53° N 19:07:26 10° WNW
STARLINK-78 3.7 18:57:07 10° W 19:01:07 64° N 19:03:43 21° ENE
Cosmos 2369 Rocket 3.0 18:56:12 10° SW 19:01:44 53° NW 19:07:21 10° NNE
Cosmos 2242 Rocket 4.3 18:57:22 10° NNW 19:01:52 59° W 19:06:22 10° S
STARLINK-1012 3.4 18:59:14 10° W 19:02:39 60° N 19:04:37 23° ENE
STARLINK-57 3.7 18:58:52 10° W 19:02:52 64° N 19:05:24 21° ENE
STARLINK-1037 3.6 18:58:53 10° WSW 19:03:02 86° NNW 19:05:48 20° ENE
Cosmos 44 Rocket 3.4 18:58:21 10° NW 19:03:05 74° SW 19:07:52 10° SSE
Cosmos 1898 Rocket 3.5 18:58:34 10° NNW 19:03:47 83° WSW 19:08:58 10° SSE
Cosmos 1703 Rocket 3.6 18:59:26 10° NNW 19:03:56 85° WSW 19:08:25 10° S
STARLINK-49 3.7 19:00:25 10° W 19:04:26 64° N 19:06:53 22° ENE
NOSS 3-2 (A) 4.2 18:57:38 10° NW 19:04:41 57° NE 19:10:56 17° ESE
STARLINK-1056 4.1 19:00:59 10° SW 19:04:55 44° SSE 19:07:07 23° E
SJ 16-02 1.4 19:00:35 10° NNW 19:05:01 84° WSW 19:09:25 10° SSE
Cosmos 1602 3.8 19:01:29 10° S 19:05:14 51° E 19:09:00 10° NNE
STARLINK-48 3.4 19:01:27 10° WNW 19:05:22 85° NNE 19:07:38 24° ESE
STARLINK-27 3.7 19:02:03 10° W 19:06:04 64° N 19:08:28 23° ENE
USA 186 2.1 19:05:54 30° E 19:06:08 31° ENE 19:08:46 10° N
STARLINK-1026 3.4 19:03:40 10° W 19:07:06 60° N 19:08:53 25° ENE
STARLINK-1023 3.3 19:04:00 10° W 19:07:16 58° N 19:08:53 26° ENE
STARLINK-74 3.7 19:03:44 10° W 19:07:45 64° N 19:10:04 24° ENE
Cosmos 841 Rocket 4.2 19:03:29 10° SSE 19:07:53 29° E 19:12:19 10° NE
Meteor 1-19 Rocket 4.2 19:02:15 10° N 19:08:04 72° ENE 19:13:41 10° SSE
STARLINK-1059 3.6 19:03:57 10° WSW 19:08:06 83° NNW 19:10:40 22° ENE
Cosmos 1763 Rocket 3.7 19:03:06 10° S 19:08:07 49° ESE 19:13:15 10° NNE
NOSS 3-2 (C) 4.3 19:01:33 10° NW 19:08:23 48° NNE 19:13:51 20° E
STARLINK-1013 3.4 19:05:55 10° W 19:09:21 60° N 19:11:03 27° ENE
STARLINK-39 3.7 19:05:23 10° W 19:09:23 64° N 19:11:38 24° ENE
STARLINK-1054 4.0 19:05:53 10° SW 19:09:51 47° SSE 19:11:52 25° E
STARLINK-26 3.1 19:07:09 10° WNW 19:10:38 86° NNE 19:12:15 30° ESE
STARLINK-31 3.7 19:07:05 10° W 19:11:05 64° N 19:13:16 25° ENE
ARGOS 3.4 19:06:06 10° SE 19:11:19 50° ENE 19:16:34 10° N
STARLINK-61 3.6 19:07:29 10° WNW 19:11:23 67° N 19:13:23 27° E
Cosmos 1939 Rocket 4.1 19:07:28 10° S 19:11:27 45° W 19:15:27 10° NNW
STARLINK-1009 3.4 19:08:09 10° W 19:11:35 60° N 19:13:12 28° ENE
Resurs 01 Rocket 3.0 19:11:23 19° ENE 19:11:43 20° ENE 19:14:54 10° NNE
Cosmos 1072 Rocket 4.5 19:05:37 10° S 19:11:57 78° E 19:18:14 10° NNE
NOSS 2-3 (D) 4.2 19:08:08 10° WSW 19:12:35 64° NW 19:18:02 10° NE
STARLINK-69 3.7 19:08:56 10° W 19:12:56 64° N 19:15:02 26° ENE
STARLINK-1057 3.6 19:08:56 10° WSW 19:13:06 81° NNW 19:15:28 25° ENE
Meteor 1-25 Rocket 4.2 19:08:00 10° S 19:13:41 89° E 19:19:20 10° NNE
STARLINK-1015 3.4 19:10:26 10° W 19:13:52 60° N 19:15:23 29° ENE
STARLINK-21 3.7 19:10:25 10° W 19:14:26 64° N 19:16:28 27° ENE
STARLINK-1062 3.9 19:10:49 10° SW 19:14:49 50° SSE 19:16:39 28° E
Cosmos 1869 Rocket 3.5 19:10:38 10° S 19:14:55 57° E 19:19:13 10° NNE
ARGOS Delta rocket 4.1 19:13:10 18° SE 19:15:58 39° ENE 19:20:12 10° N
STARLINK-45 3.7 19:12:17 10° W 19:16:18 64° N 19:18:15 28° ENE
SPOT 3 Rocket 4.0 19:13:10 17° SE 19:16:44 41° ENE 19:21:36 10° N
CENTAUR R/B 3.5 19:09:59 10° NW 19:17:18 48° NNE 19:22:39 22° E
STARLINK-70 3.7 19:13:51 10° W 19:17:51 64° N 19:19:45 29° ENE
STARLINK-1034 3.6 19:13:55 10° W 19:18:04 79° NNW 19:20:14 27° ENE
Cosmos 1513 Rocket 4.4 19:12:42 10° S 19:18:48 80° E 19:25:03 10° NNE
STARLINK-1014 3.4 19:15:34 10° W 19:19:04 60° N 19:20:28 32° ENE
STARLINK-76 3.7 19:15:23 10° W 19:19:24 64° N 19:21:13 30° ENE
STARLINK-1053 3.8 19:15:46 10° SW 19:19:47 53° SSE 19:21:26 31° E
Cosmos 389 Rocket 3.9 19:17:24 10° N 19:19:48 23° NE 19:19:48 23° NE
STARLINK-23 3.7 19:17:02 10° W 19:21:03 64° N 19:22:49 31° ENE
STARLINK-80 3.6 19:17:37 10° WNW 19:21:26 66° SSW 19:23:11 29° SE
NOSS 3-1 (A) 4.1 19:16:55 10° WSW 19:22:36 55° NW 19:29:20 10° NE
STARLINK-32 3.7 19:18:40 10° W 19:22:41 65° N 19:24:23 32° ENE
CZ-4 R/B 3.9 19:19:35 10° SSW 19:23:02 25° W 19:26:28 10° NW
STARLINK-1068 3.7 19:18:54 10° W 19:23:03 76° NNW 19:25:01 30° ENE
STARLINK-40 3.7 19:20:21 10° W 19:24:21 65° N 19:25:59 33° ENE
STARLINK-1061 3.7 19:20:41 10° SW 19:24:44 56° SSE 19:26:13 35° E
Cosmos 2150 Rocket 4.3 19:20:15 10° NNW 19:25:31 50° ENE 19:28:23 26° ESE
STARLINK-44 3.7 19:22:00 10° W 19:26:01 65° N 19:27:35 35° ENE
CZ-2C R/B 3.3 19:20:40 10° SSE 19:26:22 64° ENE 19:31:55 10° N
Lacrosse 4 Rocket 4.2 19:25:33 10° NW 19:27:35 13° NNW 19:29:38 10° N
STARLINK-37 3.7 19:23:47 10° WNW 19:27:48 66° N 19:29:16 36° ENE
STARLINK-64 3.3 19:24:14 10° WNW 19:27:50 67° N 19:28:51 43° ENE
STARLINK-33 3.0 19:24:44 10° WNW 19:28:01 72° NNE 19:28:41 51° E
Cosmos 1570 Rocket 4.1 19:24:02 10° S 19:29:08 54° ESE 19:34:18 10° NNE
STARLINK-36 3.7 19:25:18 10° W 19:29:19 65° N 19:30:44 37° ENE
FREGAT/IRIS 2.1 19:29:02 64° SSE 19:29:22 81° ENE 19:32:07 10° N
STARLINK-55 2.9 19:26:05 10° WNW 19:29:22 75° NNE 19:29:59 54° E
STARLINK-1067 3.7 19:25:38 10° SW 19:29:43 59° SSE 19:31:00 39° E
STARLINK-66 2.9 19:27:00 10° WNW 19:30:18 74° NNE 19:30:52 55° E
Cosmos 1125 Rocket 4.2 19:25:43 10° NNW 19:30:36 35° NE 19:32:01 30° E
SJ-6B 2.7 19:29:19 30° SE 19:30:57 59° ENE 19:34:44 10° N
STARLINK-28 2.9 19:27:41 10° WNW 19:30:58 78° NNE 19:31:31 57° E
STARLINK-68 3.7 19:27:11 10° WNW 19:31:12 66° N 19:32:31 39° ENE
Okean 3 3.4 19:27:02 10° N 19:31:13 59° ENE 19:33:29 25° SSE
STARLINK-42 2.9 19:28:26 10° WNW 19:31:40 72° NNE 19:32:09 58° ENE
ATLAS 3B R/B 3.4 19:26:07 10° NW 19:32:17 37° NNE 19:35:31 24° ENE
STARLINK-63 3.7 19:28:44 10° WNW 19:32:45 66° N 19:34:01 40° ENE
STARLINK-1060 3.7 19:28:52 10° W 19:33:01 73° N 19:34:34 37° ENE
STARLINK-1029 3.2 19:30:29 10° W 19:33:38 57° N 19:34:05 50° NE
Ariane Rocket 3.2 19:28:52 10° S 19:33:57 72° WSW 19:39:05 10° NNW
STARLINK-35 3.7 19:30:17 10° WNW 19:34:18 66° N 19:35:31 41° ENE
Cosmos 540 Rocket 3.8 19:29:31 10° S 19:34:19 41° ESE 19:39:09 10° NE
STARLINK-1058 3.6 19:30:35 10° SW 19:34:40 63° SSE 19:35:46 43° E
STARLINK-1007 3.3 19:31:44 10° WNW 19:35:04 60° N 19:35:37 51° NE
STARLINK-51 3.7 19:31:57 10° WNW 19:35:57 66° N 19:37:06 43° ENE
STARLINK-30 3.6 19:33:36 10° WNW 19:37:37 67° N 19:38:42 45° ENE
STARLINK-1030 3.7 19:33:53 10° W 19:38:02 71° N 19:39:23 41° ENE
STARLINK-72 3.6 19:35:17 10° WNW 19:39:18 67° N 19:40:18 46° ENE
STARLINK-1043 3.6 19:35:32 10° WSW 19:39:38 66° SSE 19:40:33 49° E
Meteor 1-13 Rocket 4.3 19:34:53 10° N 19:40:44 62° ENE 19:44:37 21° SSE
STARLINK-50 3.6 19:36:56 10° WNW 19:40:57 67° N 19:41:53 48° ENE
STARLINK-59 3.6 19:38:41 10° WNW 19:42:42 68° N 19:43:34 50° ENE
STARLINK-1020 3.7 19:38:52 10° W 19:43:01 70° N 19:44:09 45° ENE
STARLINK-1010 3.1 19:40:47 10° WNW 19:44:03 61° N 19:44:08 60° NNE
STARLINK-56 3.6 19:40:15 10° WNW 19:44:16 68° N 19:45:04 52° ENE
SL-08 RB Rocket 3.6 19:42:33 34° SE 19:44:24 65° ENE 19:48:51 10° N
STARLINK-1065 3.5 19:40:18 10° WSW 19:44:25 69° SSE 19:45:09 55° E
Cosmos 1943 Rocket 4.2 19:39:51 10° W 19:44:27 26° NW 19:49:03 10° NNE
Cosmos 2297 Rocket 2.2 19:38:56 10° NNW 19:44:35 62° NE 19:46:51 36° ESE
APEX 4.2 19:40:01 10° S 19:45:02 55° ESE 19:51:15 10° NE
STARLINK-73 3.6 19:41:54 10° WNW 19:45:55 68° N 19:46:39 54° ENE
CZ-2C R/B 3.9 19:42:12 10° NNE 19:46:43 47° E 19:51:16 10° S
STARLINK-38 3.6 19:43:35 10° WNW 19:47:37 69° N 19:48:16 56° ENE
STARLINK-1052 3.7 19:43:52 10° W 19:48:00 69° N 19:48:55 50° NE
STARLINK-65 3.6 19:45:13 10° WNW 19:49:15 69° N 19:49:50 58° ENE
Nadezhda 4 Rocket 4.2 19:43:00 10° NNW 19:49:18 74° W 19:55:36 10° S
STARLINK-1063 3.5 19:45:25 10° WSW 19:49:33 73° SSE 19:50:05 62° ESE
Cosmos 1515 4.0 19:45:57 10° NNW 19:49:43 65° W 19:52:27 17° S
STARLINK-1047 3.8 19:46:17 10° W 19:50:27 68° N 19:51:18 51° NE
Genesis I 3.6 19:47:10 10° NW 19:51:00 59° SW 19:52:01 42° S
STARLINK-53 3.5 19:46:59 10° WNW 19:51:00 70° N 19:51:31 61° ENE
Cosmos 1937 Rocket 4.5 19:47:41 10° NW 19:52:43 47° WSW 19:57:39 10° S
STARLINK-1064 3.4 19:50:23 10° WSW 19:54:32 77° SSE 19:54:52 70° ESE
Cosmos 2026 Rocket 3.9 19:49:07 10° N 19:55:17 64° ENE 19:58:22 30° SSE
STARLINK-1033 3.7 19:53:50 10° W 19:57:58 67° N 19:58:29 59° NE
ATLAS 2AS CENTAUR R/B 4.5 19:51:45 10° SSE 19:53:45 17° SSE 19:53:45 17° SSE
STARLINK-1041 3.4 19:55:22 10° WSW 19:59:30 80° SSE 19:59:39 78° SE
Meteor 1-5 Rocket 4.1 19:54:19 10° S 19:59:46 66° E 20:05:26 10° NNE
ADEOS Rocket 4.2 19:53:11 10° N 20:00:47 59° WNW 20:08:13 10° SW
Cosmos 2221 Rocket 4.0 19:58:09 10° NNW 20:02:38 63° W 20:06:07 16° S
Cosmos 2227 Rocket 2.1 19:58:04 10° NNW 20:03:46 74° ENE 20:05:17 49° SE
STARLINK-1038 3.5 20:00:19 10° WSW 20:04:25 83° S 20:04:25 83° S
Cosmos 1674 Rocket 3.6 20:01:04 10° N 20:05:11 61° NE 20:05:11 61° NE
USA 238 DEB 3.8 19:58:41 10° NW 20:05:52 85° SW 20:09:21 35° SE
USA 238 3.8 19:58:47 10° NW 20:05:58 85° SW 20:09:24 35° SE
Meteor 1-23 Rocket 4.3 20:00:50 10° N 20:06:26 56° ENE 20:07:08 52° ESE
STARLINK-1024 3.7 20:03:51 10° W 20:07:58 66° N 20:08:04 65° N
STARLINK-1046 3.6 20:05:18 10° WSW 20:09:13 79° SW 20:09:13 79° SW
STARLINK-22 4.1 20:06:33 10° WNW 20:08:56 44° WNW 20:08:56 44° WNW
Cosmos 2082 3.8 20:04:14 10° NNW 20:09:53 55° NE 20:10:31 52° E
STARLINK-41 4.2 20:08:03 10° WNW 20:10:21 42° WNW 20:10:21 42° WNW
H-2A R/B 2.9 20:06:20 10° S 20:11:36 52° W 20:16:58 10° NNW
STARLINK-1016 4.2 20:09:22 10° WNW 20:11:51 44° WNW 20:11:51 44° WNW
STARLINK-1008 4.3 20:11:04 10° WNW 20:13:29 42° WNW 20:13:29 42° WNW
STARLINK-1039 3.7 20:10:19 10° WSW 20:14:02 71° WSW 20:14:02 71° WSW
STARLINK-75 4.4 20:12:33 10° WNW 20:14:49 39° W 20:14:49 39° W
Cosmos 372 Rocket 4.3 20:11:57 10° NNW 20:17:10 65° WSW 20:19:10 37° S
STARLINK-58 4.3 20:14:19 10° WNW 20:16:53 45° WNW 20:16:53 45° WNW
STARLINK-1032 3.9 20:13:50 10° W 20:17:39 62° NNW 20:17:39 62° NNW
STARLINK-1045 3.9 20:15:17 10° WSW 20:18:48 63° WSW 20:18:48 63° WSW
STARLINK-62 4.4 20:16:02 10° WNW 20:18:31 43° WNW 20:18:31 43° WNW
STARLINK-24 4.0 20:15:42 10° WNW 20:19:04 60° WNW 20:19:04 60° WNW
STARLINK-34 4.5 20:17:39 10° WNW 20:20:04 41° WNW 20:20:04 41° WNW
Resurs 1-3 3.6 20:22:00 80° W 20:22:00 80° W 20:26:20 10° NNW
STARLINK-1011 4.1 20:18:48 10° W 20:22:24 58° NW 20:22:24 58° NW
Lacrosse 5 rocket 1.7 20:19:29 10° WNW 20:23:51 73° WSW 20:23:51 73° WSW
STARLINK-1050 4.1 20:20:18 10° WSW 20:23:39 57° W 20:23:39 57° W
STARLINK-1031 4.2 20:20:43 10° W 20:24:10 55° NW 20:24:10 55° NW
STARLINK-1035 4.1 20:20:53 10° W 20:24:37 59° NW 20:24:37 59° NW
Cosmos 1655 Rocket 4.1 20:21:13 10° N 20:27:24 55° ENE 20:27:24 55° ENE
STARLINK-1036 4.3 20:23:48 10° W 20:27:11 53° NW 20:27:11 53° NW
STARLINK-1055 4.4 20:25:17 10° WSW 20:28:25 50° W 20:28:25 50° W
MetOp-A 4.3 20:28:10 42° S 20:29:56 70° WSW 20:35:19 10° NNW
STARLINK-81 4.5 20:26:26 10° WNW 20:29:24 47° WNW 20:29:24 47° WNW
Cosmos 2142 Rocket 4.3 20:30:22 67° SE 20:30:50 70° E 20:37:02 10° NNE
Cosmos 1428 Rocket 4.4 20:24:48 10° N 20:30:57 83° W 20:33:09 43° S
Cosmos 2219 3.9 20:26:24 10° NW 20:31:58 52° WSW 20:34:13 33° SSW
STARLINK-1044 4.5 20:28:48 10° W 20:31:59 48° WNW 20:31:59 48° WNW
Lacrosse 5 1.9 20:30:04 10° WSW 20:34:52 78° W 20:34:52 78° W
GP-B 3.8 20:38:57 49° NNW 20:38:57 49° NNW 20:42:22 10° N
Cosmos 2279 Rocket 4.2 20:40:07 55° NE 20:40:07 55° NE 20:45:09 10° NNE
CZ-2C R/B 3.8 20:35:49 10° NNE 20:38:39 31° NNE 20:38:39 31° NNE
Cosmos 2263 Rocket 3.5 20:37:27 10° NNW 20:41:27 28° NNE 20:41:27 28° NNE
Cosmos 1814 Rocket 4.4 20:38:29 10° SW 20:43:32 58° WNW 20:48:39 10° NNE
USA 234 3.3 20:42:41 57° ENE 20:43:43 65° NNE 20:50:11 10° WNW
Cosmos 1634 Rocket 4.1 20:38:08 10° SSW 20:44:27 76° W 20:50:50 10° N
Gbstr 26 Del rocket 3.9 20:41:25 10° W 20:44:40 52° W 20:44:40 52° W
Resurs 01 Rocket 2.6 20:48:56 46° NW 20:48:56 46° NW 20:52:14 10° NNW
Meteor 2-13 Rocket 4.4 20:43:16 10° NNW 20:49:21 81° W 20:49:51 74° SSW
Cosmos 841 Rocket 4.3 20:44:32 10° SW 20:49:32 49° WNW 20:54:35 10° NNE
NOSS 3-2 (A) 4.5 20:48:34 10° NW 20:55:49 55° SW 20:58:23 41° S
Meteor 1-11 Rocket 4.1 20:53:40 10° SSW 20:59:09 58° WNW 21:04:37 10° N
NOSS 3-2 (C) 4.1 20:52:29 10° NW 20:59:52 70° SW 21:01:19 59° S
CENTAUR R/B 3.1 21:00:46 10° NW 21:08:40 75° SW 21:09:51 66° S
ATLAS 3B R/B 2.8 21:16:54 10° NW 21:22:47 70° NW 21:22:47 70° NW
Cosmos 2297 Rocket 3.8 21:23:34 10° NW 21:28:15 27° WSW 21:28:41 27° WSW
Terra 4.3 21:36:23 16° N 21:36:23 16° N 21:37:20 10° N
Cosmos 2227 Rocket 4.1 21:43:01 10° NW 21:47:08 22° W 21:47:08 22° W
Cosmos 2263 Rocket 4.3 22:21:10 10° NNW 22:23:09 22° NW 22:23:09 22° NW
